Weather History for KDYT - March, 2013

Change the Weather History Date:

Thursday, March 7, 2013

  Actual Average Record
Temperature  
Mean Temperature 14 °F -  
Max Temperature 26 °F 33 °F 72 °F (1987)
Min Temperature 3 °F 12 °F -19 °F (1955)
Degree Days  
Heating Degree Days 50    
Moisture  
Dew Point 12 °F    
Average Humidity 82    
Maximum Humidity 93    
Minimum Humidity 69    
Precipitation  
Precipitation 0.00 in - - ()
Sea Level Pressure  
Sea Level Pressure 30.39 in    
Wind  
Wind Speed 5 mph (East)    
Max Wind Speed 14 mph    
Max Gust Speed -    
Visibility 10 miles    
Events      
Averages and records for this station are not official NWS values.
T = Trace of Precipitation, MM = Missing Value Source: NWS Daily Summary

Daily Weather History Graph

Daily Weather History Graph

Search for Another Location

Airport or City:

Trip Planner

Search our weather history database for the weather conditions in past years. The results will help you decide how hot, cold, wet, or windy it might be!

Date:

Astronomy

Mar. 07, 2013 Rise Set
Actual Time 6:35 AM CST 6:02 PM CST
Civil Twilight 6:05 AM CST 6:33 PM CST
Nautical Twilight 5:30 AM CST 7:08 PM CST
Astronomical Twilight 4:55 AM CST 7:43 PM CST
Moon 3:49 AM CST (3/7) 1:38 PM CST (3/7)
Length of Visible Light 12h 27m
Length of Day
11h 27m
Waning Crescent, 20% of the Moon is Illuminated
Mar 7
Waning Crescent
Mar 11
New
Mar 19
First Quarter
Mar 27
Full
Apr 2
Last Quarter

Hourly Weather History & Observations

Time (CST) Temp. Windchill Dew Point Humidity Pressure Visibility Wind Dir Wind Speed Gust Speed Precip Events Conditions
12:13 AM 17.6 °F - 10.4 °F 73% 30.36 in 10.0 mi Calm Calm - N/A   Clear
12:34 AM 15.8 °F - 8.6 °F 73% 30.36 in 10.0 mi Calm Calm - N/A   Clear
12:54 AM 6.8 °F - 1.4 °F 79% 30.36 in 10.0 mi Calm Calm - N/A   Clear
1:13 AM 8.6 °F -1.3 °F 3.2 °F 79% 30.37 in 10.0 mi SSW 5.8 mph - N/A   Clear
1:33 AM 8.6 °F 0.1 °F 5.0 °F 85% 30.37 in 10.0 mi SSW 4.6 mph - N/A   Clear
1:54 AM 8.6 °F -1.3 °F 6.8 °F 92% 30.37 in 10.0 mi SSW 5.8 mph - N/A   Clear
2:13 AM 10.4 °F 2.2 °F 6.8 °F 85% 30.37 in 10.0 mi SSW 4.6 mph - N/A   Clear
2:33 AM 8.6 °F -1.3 °F 6.8 °F 92% 30.38 in 10.0 mi SSW 5.8 mph - N/A   Clear
2:54 AM 8.6 °F 0.1 °F 5.0 °F 85% 30.38 in 10.0 mi SSW 4.6 mph - N/A   Clear
3:13 AM 8.6 °F 0.1 °F 6.8 °F 92% 30.39 in 10.0 mi SW 4.6 mph - N/A   Clear
3:33 AM 8.6 °F 2.0 °F 5.0 °F 85% 30.39 in 10.0 mi SW 3.5 mph - N/A   Clear
3:54 AM 8.6 °F 0.1 °F 5.0 °F 85% 30.40 in 10.0 mi SW 4.6 mph - N/A   Clear
4:13 AM 8.6 °F 2.0 °F 5.0 °F 85% 30.40 in 10.0 mi SW 3.5 mph - N/A   Clear
4:33 AM 8.6 °F 2.0 °F 3.2 °F 79% 30.39 in 10.0 mi SW 3.5 mph - N/A   Clear
4:53 AM 6.8 °F -0.1 °F 3.2 °F 85% 30.39 in 10.0 mi SSW 3.5 mph - N/A   Clear
5:14 AM 6.8 °F - 3.2 °F 85% 30.39 in 10.0 mi Calm Calm - N/A   Clear
5:33 AM 5.0 °F - 1.4 °F 85% 30.40 in 10.0 mi Calm Calm - N/A   Clear
5:53 AM 3.2 °F -4.2 °F -0.4 °F 85% 30.40 in 10.0 mi South 3.5 mph - N/A   Clear
6:14 AM 5.0 °F -2.1 °F 1.4 °F 85% 30.41 in 10.0 mi South 3.5 mph - N/A   Clear
6:33 AM 5.0 °F - 1.4 °F 85% 30.40 in 10.0 mi Calm Calm - N/A   Clear
6:53 AM 3.2 °F - 1.4 °F 92% 30.40 in 10.0 mi Calm Calm - N/A   Clear
7:14 AM 3.2 °F -6.2 °F -0.4 °F 85% 30.41 in 10.0 mi SSW 4.6 mph - N/A   Clear
7:33 AM 5.0 °F -4.1 °F 1.4 °F 85% 30.42 in 10.0 mi SSW 4.6 mph - N/A   Clear
7:53 AM 5.0 °F -2.1 °F 1.4 °F 85% 30.41 in 10.0 mi SSW 3.5 mph - N/A   Clear
8:14 AM 6.8 °F -2.0 °F 3.2 °F 85% 30.41 in 10.0 mi SSW 4.6 mph - N/A   Clear
8:33 AM 8.6 °F 2.0 °F 5.0 °F 85% 30.41 in 10.0 mi SW 3.5 mph - N/A   Clear
8:54 AM 10.4 °F - 6.8 °F 85% 30.42 in 10.0 mi Calm Calm - N/A   Clear
9:13 AM 12.2 °F - 6.8 °F 79% 30.42 in 10.0 mi Calm Calm - N/A   Clear
9:34 AM 12.2 °F - 8.6 °F 85% 30.43 in 10.0 mi Calm Calm - N/A   Clear
9:53 AM 17.6 °F - 10.4 °F 73% 30.43 in 10.0 mi Calm Calm - N/A   Clear
10:13 AM 19.4 °F - 12.2 °F 74% 30.43 in 10.0 mi Calm Calm - N/A   Clear
10:32 AM 19.4 °F - 12.2 °F 74% 30.43 in 10.0 mi Calm Calm - N/A   Clear
10:53 AM 21.2 °F - - N/A% - 10.0 mi Calm Calm - N/A   Clear
11:14 AM 21.2 °F - 14.0 °F 74% 30.43 in 10.0 mi Calm Calm - N/A   Clear
11:33 AM 21.2 °F 14.9 °F 15.8 °F 80% 30.42 in 10.0 mi NNE 4.6 mph - N/A   Clear
11:54 AM 23.0 °F 17.0 °F 17.6 °F 80% 30.43 in 10.0 mi NNE 4.6 mph - N/A   Clear
12:13 PM 24.8 °F 17.9 °F 17.6 °F 74% 30.43 in 10.0 mi NNE 5.8 mph - N/A   Clear
12:34 PM 24.8 °F 16.1 °F 19.4 °F 80% 30.42 in 10.0 mi NNE 8.1 mph - N/A   Clear
12:53 PM 24.8 °F 15.3 °F 17.6 °F 74% 30.41 in 10.0 mi NE 9.2 mph - N/A   Clear
1:13 PM 26.6 °F 18.2 °F 17.6 °F 69% 30.40 in 10.0 mi NE 8.1 mph - N/A   Clear
1:33 PM 26.6 °F 18.2 °F 19.4 °F 74% 30.39 in 10.0 mi NE 8.1 mph - N/A   Clear
1:53 PM 26.6 °F 18.2 °F 19.4 °F 74% 30.39 in 10.0 mi NE 8.1 mph - N/A   Clear
2:13 PM 26.6 °F 17.5 °F 19.4 °F 74% 30.39 in 10.0 mi NE 9.2 mph - N/A   Clear
2:33 PM 26.6 °F 15.2 °F 19.4 °F 74% 30.38 in 10.0 mi ENE 13.8 mph - N/A   Clear
2:54 PM 26.6 °F 15.2 °F 19.4 °F 74% 30.37 in 10.0 mi NE 13.8 mph - N/A   Clear
3:13 PM 26.6 °F 16.2 °F 19.4 °F 74% 30.38 in 10.0 mi ENE 11.5 mph - N/A   Clear
3:33 PM 26.6 °F 15.7 °F 19.4 °F 74% 30.38 in 10.0 mi ENE 12.7 mph - N/A   Clear
3:54 PM 26.6 °F 16.2 °F 19.4 °F 74% 30.37 in 10.0 mi ENE 11.5 mph - N/A   Clear
4:13 PM 26.6 °F 16.2 °F 19.4 °F 74% 30.37 in 10.0 mi ENE 11.5 mph - N/A   Clear
4:33 PM 26.6 °F 16.2 °F 21.2 °F 80% 30.37 in 10.0 mi ENE 11.5 mph - N/A   Clear
4:54 PM 26.6 °F 15.7 °F 21.2 °F 80% 30.37 in 10.0 mi ENE 12.7 mph - N/A   Clear
5:13 PM 26.6 °F 16.2 °F 21.2 °F 80% 30.37 in 10.0 mi ENE 11.5 mph - N/A   Clear
5:33 PM 26.6 °F 16.2 °F 21.2 °F 80% 30.37 in 10.0 mi ENE 11.5 mph - N/A   Clear
5:54 PM 24.8 °F - 21.2 °F 86% 30.37 in 10.0 mi North - - N/A   Clear
7:33 PM 24.8 °F 12.9 °F 21.2 °F 86% 30.35 in 10.0 mi NE 13.8 mph - N/A   Clear
7:53 PM 24.8 °F 13.4 °F 21.2 °F 86% 30.35 in 10.0 mi NE 12.7 mph - N/A   Clear
8:14 PM 24.8 °F 14.0 °F 19.4 °F 80% 30.35 in 10.0 mi ENE 11.5 mph - N/A   Clear
8:33 PM 23.0 °F 11.7 °F 19.4 °F 86% 30.36 in 10.0 mi East 11.5 mph - N/A   Clear
8:53 PM 21.2 °F 8.9 °F 17.6 °F 86% 30.36 in 10.0 mi East 12.7 mph - N/A   Clear
9:14 PM 23.0 °F 11.1 °F 17.6 °F 80% 30.36 in 10.0 mi East 12.7 mph - N/A   Clear
9:33 PM 21.2 °F 8.9 °F 17.6 °F 86% 30.36 in 10.0 mi East 12.7 mph - N/A   Clear
9:53 PM 21.2 °F 9.5 °F 17.6 °F 86% 30.36 in 10.0 mi ENE 11.5 mph - N/A   Clear
10:13 PM 21.2 °F 9.5 °F 17.6 °F 86% 30.35 in 10.0 mi ENE 11.5 mph - N/A   Clear
10:33 PM 19.4 °F 7.9 °F 17.6 °F 93% 30.35 in 10.0 mi ENE 10.4 mph - N/A   Clear
10:53 PM 19.4 °F 8.6 °F 15.8 °F 86% 30.36 in 10.0 mi ENE 9.2 mph - N/A   Clear
11:13 PM 19.4 °F 8.6 °F 15.8 °F 86% 30.36 in 10.0 mi ENE 9.2 mph - N/A   Clear
11:33 PM 19.4 °F 10.4 °F 15.8 °F 86% 30.36 in 10.0 mi ENE 6.9 mph - N/A   Clear
11:53 PM 17.6 °F 7.3 °F 15.8 °F 93% 30.36 in 10.0 mi ENE 8.1 mph - N/A   Clear